Change the Weather History Date:

Friday, November 30, 2012

  Actual Average Record
Temperature  
Mean Temperature 30 °F -  
Max Temperature 39 °F 44 °F 59 °F (2001)
Min Temperature 21 °F 36 °F 21 °F (2012)
Degree Days  
Heating Degree Days 35    
Moisture  
Dew Point 29 °F    
Average Humidity 92    
Maximum Humidity 100    
Minimum Humidity 79    
Precipitation  
Precipitation 0.01 in - - ()
Sea Level Pressure  
Sea Level Pressure 29.88 in    
Wind  
Wind Speed 1 mph ()    
Max Wind Speed 4 mph    
Max Gust Speed -    
Visibility 4.6 miles    
Events Fog    
Averages and records for this station are not official NWS values.
T = Trace of Precipitation, MM = Missing Value Source: Averaged Metar Reports

Daily Weather History Graph

Daily Weather History Graph

Search for Another Location

Airport or City:

Trip Planner

Search our weather history database for the weather conditions in past years. The results will help you decide how hot, cold, wet, or windy it might be!

Date:

Astronomy

Nov. 30, 2012 Rise Set
Actual Time 7:47 AM GMT 3:58 PM GMT
Civil Twilight 7:08 AM GMT 4:37 PM GMT
Nautical Twilight 6:25 AM GMT 5:20 PM GMT
Astronomical Twilight 5:45 AM GMT 6:00 PM GMT
Moon 5:41 PM GMT 9:08 AM GMT
Length of Visible Light 9h 29m
Length of Day
8h 11m
Full, 97% of the Moon is Illuminated
Nov 30
Full
Dec 6
Last Quarter
Dec 13
New
Dec 20
First Quarter
Dec 28
Full

Hourly Weather History & Observations

Time (GMT) Temp. Windchill Dew Point Humidity Pressure Visibility Wind Dir Wind Speed Gust Speed Precip Events Conditions
12:50 AM 24.8 °F - 24.8 °F 100% 29.86 in 5.0 mi Calm Calm - N/A   Partly Cloudy
1:50 AM 24.8 °F - 23.0 °F 93% 29.86 in 5.0 mi Calm Calm - N/A   Mostly Cloudy
2:50 AM 27 °F - 26 °F 95% 29.87 in 4 mi ESE 2.3 mph - -   Overcast
2:50 AM 26.6 °F - 26.6 °F 100% 29.83 in 4.3 mi ESE 2.3 mph - N/A   Overcast
3:50 AM 28.4 °F - 26.6 °F 93% 29.83 in 4.3 mi SSW 1.2 mph - N/A   Mostly Cloudy
4:50 AM 23.0 °F - 23.0 °F 100% 29.83 in 3.7 mi ESE 2.3 mph - N/A   Haze
5:50 AM 22 °F - 20 °F 89% 29.86 in 4 mi SSE 1.2 mph - -   Haze
5:50 AM 21.2 °F - 19.4 °F 93% 29.83 in 3.7 mi SSE 1.2 mph - N/A   Haze
6:50 AM 21.2 °F - 19.4 °F 93% 29.83 in 3.7 mi SE 1.2 mph - N/A Fog Fog
7:50 AM 21.2 °F - 19.4 °F 93% 29.86 in 4.3 mi Calm Calm - N/A   Partly Cloudy
8:50 AM 27 °F - 26 °F 94% 29.88 in 5 mi Calm Calm - -   Mist
8:50 AM 26.6 °F - 26.6 °F 100% 29.86 in 5.0 mi Calm Calm - N/A   Partly Cloudy
9:50 AM 33.8 °F 30.8 °F 32.0 °F 93% 29.86 in 5.0 mi South 3.5 mph - N/A   Haze
10:50 AM 37.4 °F - 33.8 °F 87% 29.86 in 6.2 mi SSW 1.2 mph - N/A   Mostly Cloudy
11:50 AM 37 °F - 33 °F 79% 29.89 in 10 mi Calm Calm - -   Mostly Cloudy
11:50 AM 37.4 °F - 33.8 °F 87% 29.86 in 6.2 mi Calm Calm - N/A   Mostly Cloudy
12:50 PM 37.4 °F 34.9 °F 33.8 °F 87% 29.86 in 6.2 mi SW 3.5 mph - N/A   Mostly Cloudy
1:50 PM 39.2 °F 37.0 °F 33.8 °F 81% 29.86 in 6.2 mi SW 3.5 mph - N/A   Mostly Cloudy
2:50 PM 38 °F - 34 °F 81% 29.88 in 11 mi SSW 2.3 mph - -   Mostly Cloudy
2:50 PM 39.2 °F - 33.8 °F 81% 29.86 in 6.2 mi SSW 2.3 mph - N/A   Mostly Cloudy
3:50 PM 35.6 °F - 33.8 °F 93% 29.86 in 6.2 mi SSE 1.2 mph - N/A   Mostly Cloudy
4:50 PM 30.2 °F - 28.4 °F 93% 29.89 in 5.0 mi Calm Calm - N/A   Mostly Cloudy
5:50 PM 29 °F - 28 °F 96% 29.92 in 4 mi South 1.2 mph - -   Partly Cloudy
5:50 PM 30.2 °F - 28.4 °F 93% 29.89 in 3.7 mi South 1.2 mph - N/A   Scattered Clouds
6:50 PM 30.2 °F - 30.2 °F 100% 29.92 in 3.7 mi SE 1.2 mph - N/A   Mostly Cloudy
7:50 PM 33.8 °F - 32.0 °F 93% 29.92 in 3.7 mi South 1.2 mph - N/A   Mostly Cloudy
8:50 PM 31 °F - 31 °F 97% 29.96 in 2 mi North 1.2 mph - -   Mostly Cloudy
8:50 PM 32.0 °F - 30.2 °F 93% 29.92 in 1.9 mi North 1.2 mph - N/A   Mostly Cloudy
9:50 PM 33.8 °F - 32.0 °F 93% 29.95 in - WNW 1.2 mph - N/A   Mostly Cloudy
10:50 PM 32.0 °F - 32.0 °F 100% 29.95 in 1.7 mi NNW 2.3 mph - N/A   Scattered Clouds
11:50 PM 31 °F - 30 °F 96% 29.98 in 1 mi NW 1.2 mph - -   Mostly Cloudy
11:50 PM 32.0 °F - 30.2 °F 93% 29.95 in 1.4 mi NW 1.2 mph - N/A   Mostly Cloudy